TimeEST,TemperatureF,Dew PointF,Humidity,Sea Level PressureIn,VisibilityMPH,Wind Direction,Wind SpeedMPH,Gust SpeedMPH,PrecipitationIn,Events,Conditions,WindDirDegrees,DateUTC
12:54 AM,44.1,30.0,58,30.06,10.0,West,5.8,-,N/A,,Clear,280,2013-01-21 05:54:00
1:54 AM,41.0,30.0,65,30.08,10.0,Calm,Calm,-,N/A,,Clear,0,2013-01-21 06:54:00
2:54 AM,42.1,30.0,62,30.08,10.0,Calm,Calm,-,N/A,,Clear,0,2013-01-21 07:54:00
3:54 AM,43.0,28.9,58,30.08,10.0,North,5.8,-,N/A,,Clear,10,2013-01-21 08:54:00
4:54 AM,43.0,30.0,60,30.08,10.0,NNE,3.5,-,N/A,,Clear,20,2013-01-21 09:54:00
5:54 AM,41.0,32.0,70,30.08,10.0,ENE,3.5,-,N/A,,Clear,70,2013-01-21 10:54:00
6:54 AM,39.9,30.9,70,30.07,10.0,ENE,5.8,-,N/A,,Clear,60,2013-01-21 11:54:00
7:54 AM,42.1,30.9,65,30.08,10.0,NE,4.6,-,N/A,,Clear,50,2013-01-21 12:54:00
8:54 AM,48.0,34.0,58,30.09,10.0,East,4.6,-,N/A,,Clear,80,2013-01-21 13:54:00
9:54 AM,52.0,37.9,59,30.09,10.0,East,6.9,-,N/A,,Clear,80,2013-01-21 14:54:00
10:54 AM,55.9,39.0,53,30.07,10.0,ESE,11.5,-,N/A,,Clear,120,2013-01-21 15:54:00
11:54 AM,57.0,37.9,49,30.03,10.0,ESE,10.4,-,N/A,,Clear,120,2013-01-21 16:54:00
12:54 PM,57.9,39.9,51,29.97,10.0,SE,10.4,-,N/A,,Clear,130,2013-01-21 17:54:00
1:54 PM,60.1,39.9,47,29.94,10.0,ESE,8.1,-,N/A,,Clear,120,2013-01-21 18:54:00
2:54 PM,59.0,41.0,51,29.91,10.0,ESE,5.8,-,N/A,,Clear,110,2013-01-21 19:54:00
3:54 PM,57.0,41.0,55,29.87,10.0,ESE,8.1,-,N/A,,Clear,110,2013-01-21 20:54:00
4:54 PM,55.9,41.0,57,29.85,10.0,South,4.6,-,N/A,,Clear,190,2013-01-21 21:54:00
5:54 PM,54.0,39.0,57,29.84,10.0,SSW,4.6,-,N/A,,Clear,200,2013-01-21 22:54:00
6:54 PM,46.0,37.0,71,29.85,10.0,SW,6.9,-,N/A,,Clear,220,2013-01-21 23:54:00
7:54 PM,50.0,39.9,68,29.85,10.0,SSW,8.1,-,N/A,,Clear,210,2013-01-22 00:54:00
8:54 PM,48.9,37.9,66,29.85,10.0,SW,8.1,-,N/A,,Clear,220,2013-01-22 01:54:00
9:54 PM,51.1,36.0,56,29.86,10.0,WSW,12.7,-,N/A,,Clear,240,2013-01-22 02:54:00
10:54 PM,50.0,28.9,44,29.90,10.0,WNW,12.7,-,N/A,,Clear,290,2013-01-22 03:54:00
11:54 PM,46.9,24.1,41,29.91,10.0,WNW,12.7,-,N/A,,Clear,290,2013-01-22 04:54:00